Find Starlink 1741

NORAD ID: 46567 Int'l Des: 2020-070 Owner: SPXS Country: US Constellation: starlink decayed
LEOCIRCULAR

Re-entered — Jul 3, 2026

Loading 3D Globe...

About Starlink 1741

Starlink 1741 (NORAD 46567) is a starlink constellation satellite (v1.0) launched Oct 6, 2020 by SPXS of US. It re-entered the atmosphere on Jul 3, 2026. with a mass of 260.00 kg.

Altitude History

Loading altitude history...

Two-Line Element Set

1 46567U 20070AM 26184.45793223 .07987208 12403-4 72477-3 0 9998
2 46567 53.0152 256.3391 0007819 319.9532 40.0936 16.38061958318643
Epoch: Jul 3, 2026 • Age: 548 hours

Current Status

Position data unavailable
Launch Date Oct 6, 2020
Age 5.7 years
Decay Date Jul 3, 2026
Type internet

Technical Details

Classification Payload
Mass 260.00 kg
Dry Mass 248.00 kg
Total Mass 260.00 kg
Length 0.20 m
Diameter 2.80 m
Span 9.00 m
Shape Box + pan
Manufacturer SPXS
Bus Type Starlink
Phase Status Unknown Transfer Status
Owner/State SPXS/US

Most Searched